Powrót do katalogu

COSMOS 2251 DEB

AktywnyLEO
NORAD 35956·DEBRIS·🇷🇺 Russia

Wystrzelony Jun 16, 1993 z Plesetsk Cosmodrome

Loading…

Następne Przeloty (najbliższe 24 godziny)

TLE

ŚwieżeSource: Space-Track

Epoka: Sep 14, 2026, 01:50 UTC

1 35956U 93036AUW 26257.07705254  .00005106  00000-0  22064-2 0  9999
2 35956  74.0741 128.8273 0225117 139.7140 222.0929 14.11961203657447

Śledź COSMOS 2251 DEB w czasie rzeczywistym z AllMySat

Download on the App Store